CFG8ZU LKPR-EDDF

Flight info

Callsign CFG8ZU
Flight time 0h 43m
Altitude 26000
Route BALTU6H/12 BALTU DCT DONAD DCT RAPET T170 GAPLA T178 KERAX KERAX5A
Aircraft A321/M-SDE3FGHIRWY/LB1

Departure

Time 2026-05-06 19:31
Airport Václav Havel Airport Prague (LKPR)

Arrival

Time 2026-05-06 20:15
Airport Frankfurt Main Airport (EDDF)
Time Latitude Longitude Altitude Speed Heading
2026-05-06 18:49 50.10880 14.25958 1174 ft 0 kts 304°
2026-05-06 19:23 50.10881 14.25955 1175 ft 2 kts 304°
2026-05-06 19:23 50.10899 14.25915 1173 ft 6 kts 304°
2026-05-06 19:23 50.10902 14.25852 1172 ft 6 kts 233°
2026-05-06 19:23 50.10874 14.25817 1172 ft 4 kts 215°
2026-05-06 19:24 50.10856 14.25797 1173 ft 2 kts 215°
2026-05-06 19:24 50.10840 14.25780 1173 ft 6 kts 214°
2026-05-06 19:24 50.10783 14.25719 1174 ft 12 kts 214°
2026-05-06 19:24 50.10724 14.25655 1176 ft 10 kts 214°
2026-05-06 19:25 50.10670 14.25598 1177 ft 9 kts 214°
2026-05-06 19:25 50.10624 14.25542 1178 ft 9 kts 226°
2026-05-06 19:25 50.10595 14.25443 1177 ft 12 kts 256°
2026-05-06 19:25 50.10590 14.25403 1177 ft 2 kts 258°
2026-05-06 19:26 50.10585 14.25364 1176 ft 4 kts 258°
2026-05-06 19:26 50.10581 14.25337 1175 ft 0 kts 259°
2026-05-06 19:29 50.10581 14.25335 1175 ft 1 kts 259°
2026-05-06 19:29 50.10575 14.25288 1174 ft 10 kts 259°
2026-05-06 19:30 50.10544 14.25157 1173 ft 13 kts 217°
2026-05-06 19:30 50.10480 14.25202 1174 ft 11 kts 132°
2026-05-06 19:30 50.10369 14.25420 1181 ft 56 kts 126°
2026-05-06 19:30 50.09999 14.26192 1199 ft 119 kts 127°
2026-05-06 19:31 50.09401 14.27434 1225 ft 166 kts 126°
2026-05-06 19:31 50.08706 14.28868 1809 ft 164 kts 128°
2026-05-06 19:31 50.07327 14.31801 2910 ft 180 kts 127°
2026-05-06 19:32 50.06527 14.33445 3186 ft 201 kts 128°
2026-05-06 19:32 50.05632 14.35266 3389 ft 224 kts 128°
2026-05-06 19:32 50.04630 14.37302 3668 ft 250 kts 128°
2026-05-06 19:32 50.03535 14.39535 4154 ft 267 kts 128°
2026-05-06 19:33 50.02400 14.41864 4919 ft 272 kts 127°
2026-05-06 19:33 50.01250 14.44230 5701 ft 276 kts 127°
2026-05-06 19:33 50.00397 14.46916 6424 ft 282 kts 102°
2026-05-06 19:33 50.00412 14.49971 7117 ft 287 kts 75°
2026-05-06 19:34 50.01338 14.52707 7785 ft 290 kts 47°
2026-05-06 19:34 50.02898 14.54708 8436 ft 293 kts 35°
2026-05-06 19:34 50.04715 14.56134 9059 ft 296 kts 14°
2026-05-06 19:34 50.06765 14.56372 9650 ft 298 kts 351°
2026-05-06 19:35 50.08719 14.55312 10205 ft 301 kts 328°
2026-05-06 19:35 50.10284 14.53045 10359 ft 318 kts 302°
2026-05-06 19:35 50.11090 14.49794 10491 ft 333 kts 277°
2026-05-06 19:35 50.11283 14.46114 10616 ft 348 kts 273°
2026-05-06 19:36 50.11444 14.42258 10743 ft 363 kts 273°
2026-05-06 19:36 50.11613 14.38267 10878 ft 376 kts 273°
2026-05-06 19:36 50.11791 14.34163 11187 ft 382 kts 274°
2026-05-06 19:36 50.11975 14.30008 11585 ft 385 kts 274°
2026-05-06 19:37 50.12162 14.25833 11977 ft 388 kts 274°
2026-05-06 19:37 50.12347 14.21642 12346 ft 391 kts 274°
2026-05-06 19:37 50.12532 14.17441 12693 ft 393 kts 274°
2026-05-06 19:37 50.12719 14.13182 13037 ft 395 kts 274°
2026-05-06 19:38 50.12905 14.08913 13363 ft 397 kts 274°
2026-05-06 19:38 50.13091 14.04610 13671 ft 399 kts 273°
2026-05-06 19:38 50.13273 14.00276 13969 ft 402 kts 273°
2026-05-06 19:38 50.13455 13.95923 14253 ft 404 kts 273°
2026-05-06 19:39 50.13636 13.91544 14523 ft 406 kts 273°
2026-05-06 19:39 50.13814 13.87152 14789 ft 407 kts 273°
2026-05-06 19:39 50.13992 13.82740 15031 ft 409 kts 273°
2026-05-06 19:39 50.14171 13.78309 15251 ft 410 kts 273°
2026-05-06 19:40 50.14349 13.73857 15454 ft 412 kts 273°
2026-05-06 19:40 50.14525 13.69392 15640 ft 413 kts 273°
2026-05-06 19:40 50.14700 13.64914 15818 ft 415 kts 273°
2026-05-06 19:40 50.14875 13.60422 15982 ft 416 kts 273°
2026-05-06 19:41 50.15050 13.55917 16134 ft 417 kts 273°
2026-05-06 19:41 50.15221 13.51425 16275 ft 418 kts 273°
2026-05-06 19:41 50.15392 13.46891 16406 ft 419 kts 273°
2026-05-06 19:41 50.15559 13.42355 16531 ft 420 kts 273°
2026-05-06 19:42 50.15723 13.37803 16658 ft 421 kts 273°
2026-05-06 19:42 50.15888 13.33246 16783 ft 421 kts 273°
2026-05-06 19:42 50.16050 13.28685 16907 ft 422 kts 273°
2026-05-06 19:42 50.16212 13.24111 17032 ft 422 kts 273°
2026-05-06 19:43 50.16373 13.19537 17157 ft 423 kts 273°
2026-05-06 19:43 50.16533 13.14970 17281 ft 423 kts 273°
2026-05-06 19:43 50.16693 13.10380 17406 ft 423 kts 272°
2026-05-06 19:43 50.16848 13.05797 17531 ft 423 kts 272°
2026-05-06 19:44 50.17002 13.01215 17655 ft 423 kts 272°
2026-05-06 19:44 50.17153 12.96634 17780 ft 423 kts 272°
2026-05-06 19:44 50.17514 12.92092 17899 ft 423 kts 284°
2026-05-06 19:44 50.18322 12.87683 18027 ft 423 kts 286°
2026-05-06 19:45 50.19145 12.83287 18152 ft 422 kts 286°
2026-05-06 19:45 50.19968 12.78887 18276 ft 422 kts 286°
2026-05-06 19:45 50.20790 12.74484 18401 ft 422 kts 286°
2026-05-06 19:45 50.21605 12.70088 18526 ft 422 kts 285°
2026-05-06 19:46 50.22421 12.65685 18650 ft 422 kts 285°
2026-05-06 19:46 50.23233 12.61289 18775 ft 421 kts 285°
2026-05-06 19:46 50.24042 12.56895 18900 ft 421 kts 285°
2026-05-06 19:46 50.24847 12.52500 19024 ft 420 kts 285°
2026-05-06 19:47 50.25646 12.48113 19149 ft 420 kts 285°
2026-05-06 19:47 50.26447 12.43725 19274 ft 419 kts 285°
2026-05-06 19:47 50.27249 12.39346 19399 ft 419 kts 285°
2026-05-06 19:47 50.28051 12.34965 19523 ft 418 kts 285°
2026-05-06 19:48 50.28846 12.30599 19648 ft 418 kts 285°
2026-05-06 19:48 50.29638 12.26222 19773 ft 417 kts 285°
2026-05-06 19:48 50.30413 12.21911 19896 ft 417 kts 285°
2026-05-06 19:48 50.31196 12.17554 20020 ft 416 kts 285°
2026-05-06 19:49 50.31988 12.13140 20147 ft 415 kts 285°
2026-05-06 19:49 50.32756 12.08854 20270 ft 415 kts 285°
2026-05-06 19:49 50.33531 12.04503 20395 ft 415 kts 285°
2026-05-06 19:49 50.34301 12.00157 20519 ft 414 kts 285°
2026-05-06 19:50 50.35068 11.95815 20644 ft 414 kts 285°
2026-05-06 19:50 50.35837 11.91471 20769 ft 414 kts 285°
2026-05-06 19:50 50.36606 11.87134 20893 ft 413 kts 285°
2026-05-06 19:50 50.37374 11.82800 21018 ft 413 kts 285°
2026-05-06 19:51 50.38139 11.78469 21143 ft 412 kts 285°
2026-05-06 19:51 50.38902 11.74135 21268 ft 412 kts 285°
2026-05-06 19:51 50.39661 11.69804 21393 ft 412 kts 285°
2026-05-06 19:51 50.40417 11.65487 21518 ft 411 kts 285°
2026-05-06 19:52 50.41172 11.61163 21642 ft 411 kts 285°
2026-05-06 19:52 50.41924 11.56844 21767 ft 410 kts 285°
2026-05-06 19:52 50.42672 11.52528 21892 ft 410 kts 285°
2026-05-06 19:52 50.43416 11.48209 22018 ft 410 kts 285°
2026-05-06 19:53 50.44160 11.43895 22143 ft 409 kts 285°
2026-05-06 19:53 50.44903 11.39592 22268 ft 409 kts 285°
2026-05-06 19:53 50.45646 11.35281 22393 ft 409 kts 285°
2026-05-06 19:53 50.46385 11.30981 22518 ft 408 kts 284°
2026-05-06 19:54 50.47083 11.26666 22643 ft 407 kts 279°
2026-05-06 19:54 50.47275 11.22248 22771 ft 406 kts 270°
2026-05-06 19:54 50.47319 11.17812 22895 ft 406 kts 270°
2026-05-06 19:54 50.47356 11.13378 23020 ft 406 kts 270°
2026-05-06 19:55 50.47389 11.08958 23145 ft 405 kts 270°
2026-05-06 19:55 50.47419 11.04531 23269 ft 405 kts 270°
2026-05-06 19:55 50.47445 11.00116 23394 ft 405 kts 270°
2026-05-06 19:55 50.47471 10.95757 23517 ft 404 kts 270°
2026-05-06 19:56 50.47498 10.91349 23642 ft 404 kts 270°
2026-05-06 19:56 50.47520 10.86942 23767 ft 404 kts 270°
2026-05-06 19:56 50.47542 10.82546 23921 ft 402 kts 270°
2026-05-06 19:56 50.47563 10.78149 24000 ft 404 kts 270°
2026-05-06 19:57 50.47583 10.73727 24010 ft 406 kts 270°
2026-05-06 19:57 50.47600 10.69281 24009 ft 408 kts 270°
2026-05-06 19:57 50.47617 10.64815 24009 ft 410 kts 270°
2026-05-06 19:57 50.47634 10.60330 24009 ft 412 kts 270°
2026-05-06 19:58 50.47648 10.55797 23570 ft 424 kts 270°
2026-05-06 19:58 50.47659 10.51066 22939 ft 441 kts 270°
2026-05-06 19:58 50.47670 10.46174 22315 ft 456 kts 270°
2026-05-06 19:58 50.47679 10.41111 21683 ft 471 kts 270°
2026-05-06 19:59 50.47685 10.35901 21051 ft 481 kts 270°
2026-05-06 19:59 50.47689 10.30648 20424 ft 480 kts 270°
2026-05-06 19:59 50.47691 10.27184 20010 ft 478 kts 270°
2026-05-06 19:59 50.47694 10.21993 19385 ft 473 kts 270°
2026-05-06 20:00 50.47695 10.16872 18762 ft 468 kts 270°
2026-05-06 20:00 50.47693 10.11795 18136 ft 463 kts 270°
2026-05-06 20:00 50.47686 10.06767 17511 ft 458 kts 269°
2026-05-06 20:00 50.47674 10.01787 16885 ft 453 kts 269°
2026-05-06 20:01 50.47661 9.96866 16259 ft 448 kts 269°
2026-05-06 20:01 50.47646 9.92002 15635 ft 443 kts 269°
2026-05-06 20:01 50.47629 9.87192 15010 ft 439 kts 269°
2026-05-06 20:01 50.47611 9.82435 14384 ft 434 kts 269°
2026-05-06 20:02 50.47596 9.77719 13756 ft 429 kts 269°
2026-05-06 20:02 50.47579 9.73064 13075 ft 424 kts 269°
2026-05-06 20:02 50.47542 9.68460 12397 ft 419 kts 267°
2026-05-06 20:02 50.46985 9.64040 11743 ft 409 kts 248°
2026-05-06 20:03 50.45609 9.60290 11576 ft 386 kts 234°
2026-05-06 20:03 50.44091 9.56957 11443 ft 366 kts 234°
2026-05-06 20:03 50.42635 9.53784 11193 ft 351 kts 234°
2026-05-06 20:03 50.41234 9.50735 10943 ft 338 kts 234°
2026-05-06 20:04 50.39813 9.47894 10693 ft 325 kts 230°
2026-05-06 20:04 50.38392 9.45212 10442 ft 314 kts 230°
2026-05-06 20:04 50.37016 9.42628 10192 ft 304 kts 230°
2026-05-06 20:04 50.35676 9.40116 9942 ft 298 kts 230°
2026-05-06 20:05 50.34356 9.37641 9692 ft 295 kts 230°
2026-05-06 20:05 50.33043 9.35180 9441 ft 294 kts 230°
2026-05-06 20:05 50.31736 9.32735 9190 ft 292 kts 230°
2026-05-06 20:05 50.30433 9.30297 8938 ft 291 kts 230°
2026-05-06 20:06 50.29161 9.27917 8692 ft 290 kts 230°
2026-05-06 20:06 50.27848 9.25463 8436 ft 288 kts 230°
2026-05-06 20:06 50.26564 9.23063 8185 ft 287 kts 230°
2026-05-06 20:06 50.25283 9.20671 7906 ft 286 kts 230°
2026-05-06 20:07 50.24019 9.18312 7579 ft 280 kts 230°
2026-05-06 20:07 50.22806 9.16048 7259 ft 274 kts 230°
2026-05-06 20:07 50.21594 9.13787 6933 ft 268 kts 230°
2026-05-06 20:07 50.20408 9.11579 6652 ft 262 kts 230°
2026-05-06 20:08 50.19238 9.09454 6400 ft 255 kts 229°
2026-05-06 20:08 50.18086 9.07384 6147 ft 249 kts 229°
2026-05-06 20:08 50.16962 9.05365 5896 ft 244 kts 229°
2026-05-06 20:08 50.15854 9.03375 5646 ft 242 kts 229°
2026-05-06 20:09 50.14754 9.01401 5396 ft 241 kts 229°
2026-05-06 20:09 50.13719 8.99380 5143 ft 236 kts 240°
2026-05-06 20:09 50.13053 8.97078 4966 ft 229 kts 249°
2026-05-06 20:09 50.12530 8.94800 4839 ft 219 kts 250°
2026-05-06 20:10 50.12018 8.92581 4720 ft 216 kts 250°
2026-05-06 20:10 50.11504 8.90381 4541 ft 216 kts 250°
2026-05-06 20:10 50.10989 8.88186 4274 ft 215 kts 250°
2026-05-06 20:10 50.10479 8.86019 3996 ft 211 kts 250°
2026-05-06 20:11 50.09979 8.83893 3719 ft 207 kts 250°
2026-05-06 20:11 50.09489 8.81813 3449 ft 203 kts 250°
2026-05-06 20:11 50.09004 8.79753 3185 ft 202 kts 249°
2026-05-06 20:11 50.08519 8.77701 2918 ft 201 kts 249°
2026-05-06 20:12 50.08039 8.75667 2657 ft 198 kts 249°
2026-05-06 20:12 50.07576 8.73707 2400 ft 185 kts 249°
2026-05-06 20:12 50.07156 8.71933 2161 ft 165 kts 249°
2026-05-06 20:12 50.06776 8.70330 1944 ft 150 kts 249°
2026-05-06 20:13 50.06423 8.68842 1751 ft 144 kts 249°
2026-05-06 20:13 50.06081 8.67398 1568 ft 141 kts 249°
2026-05-06 20:13 50.05742 8.65971 1380 ft 140 kts 249°
2026-05-06 20:13 50.05406 8.64557 1195 ft 139 kts 249°
2026-05-06 20:14 50.05071 8.63145 1010 ft 139 kts 249°
2026-05-06 20:14 50.04738 8.61743 827 ft 138 kts 249°
2026-05-06 20:14 50.04405 8.60344 646 ft 138 kts 249°
2026-05-06 20:14 50.04076 8.58945 460 ft 137 kts 249°
2026-05-06 20:15 50.03748 8.57580 361 ft 128 kts 249°
2026-05-06 20:15 50.03485 8.56484 351 ft 82 kts 249°
2026-05-06 20:15 50.03349 8.55919 347 ft 32 kts 250°
2026-05-06 20:15 50.03314 8.55694 343 ft 20 kts 262°
2026-05-06 20:16 50.03315 8.55486 344 ft 13 kts 277°
2026-05-06 20:16 50.03330 8.55344 343 ft 14 kts 281°
2026-05-06 20:16 50.03348 8.55196 342 ft 10 kts 281°
2026-05-06 20:16 50.03352 8.55165 342 ft 3 kts 281°
2026-05-06 20:17 50.03356 8.55130 342 ft 4 kts 281°
2026-05-06 20:17 50.03366 8.55071 342 ft 9 kts 297°
2026-05-06 20:17 50.03395 8.55057 343 ft 7 kts 53°
2026-05-06 20:17 50.03428 8.55202 344 ft 19 kts 70°
2026-05-06 20:18 50.03472 8.55386 345 ft 18 kts 70°
2026-05-06 20:18 50.03514 8.55563 346 ft 17 kts 69°
2026-05-06 20:18 50.03556 8.55741 347 ft 20 kts 70°
2026-05-06 20:18 50.03613 8.55978 350 ft 27 kts 69°
2026-05-06 20:19 50.03678 8.56249 353 ft 27 kts 69°
2026-05-06 20:19 50.03743 8.56518 352 ft 27 kts 69°
2026-05-06 20:19 50.03806 8.56785 353 ft 26 kts 70°
2026-05-06 20:19 50.03869 8.57049 356 ft 25 kts 69°
2026-05-06 20:20 50.03927 8.57289 362 ft 22 kts 70°
2026-05-06 20:20 50.03978 8.57505 365 ft 21 kts 69°
2026-05-06 20:20 50.04029 8.57716 366 ft 21 kts 69°
2026-05-06 20:20 50.04077 8.57924 367 ft 20 kts 71°
2026-05-06 20:21 50.04121 8.58118 368 ft 17 kts 66°
2026-05-06 20:21 50.04164 8.58276 368 ft 15 kts 69°
2026-05-06 20:21 50.04202 8.58439 369 ft 17 kts 70°
2026-05-06 20:21 50.04246 8.58627 369 ft 20 kts 69°
2026-05-06 20:22 50.04296 8.58831 373 ft 20 kts 69°
2026-05-06 20:22 50.04345 8.59034 377 ft 20 kts 69°
2026-05-06 20:22 50.04399 8.59253 376 ft 23 kts 71°
2026-05-06 20:22 50.04438 8.59415 376 ft 14 kts 64°
2026-05-06 20:23 50.04510 8.59470 374 ft 11 kts 354°
2026-05-06 20:23 50.04583 8.59465 373 ft 12 kts
2026-05-06 20:23 50.04681 8.59451 372 ft 16 kts 346°
2026-05-06 20:23 50.04776 8.59400 372 ft 9 kts 337°
2026-05-06 20:24 50.04829 8.59360 370 ft 8 kts 324°
2026-05-06 20:24 50.04846 8.59287 369 ft 7 kts 260°
2026-05-06 20:24 50.04837 8.59233 369 ft 4 kts 251°
2026-05-06 20:24 50.04826 8.59189 369 ft 5 kts 248°
2026-05-06 20:25 50.04811 8.59120 368 ft 6 kts 252°
2026-05-06 20:25 50.04826 8.59080 368 ft 4 kts 325°
2026-05-06 20:25 50.04855 8.59061 366 ft 5 kts 339°
2026-05-06 20:25 50.04876 8.59049 365 ft 0 kts 340°